Flag for U.S.A. Weather past 2 weeks in Furnace Creek (Death Valley), California, U.S.A.

Now
72 °F

Clear.


Feels Like: 75 °F
Forecast: 77 / 109 °F
Wind: 7 mph from Northeast

Location: Desert Rock Airport

Current Time: Sep 1, 2015 at 3:54:21 AM

Latest Report: Sep 1, 2015 at 2:53 AM


Visibility: 10 mi

Pressure: 29.75 "Hg

Humidity: 19%

Dew point: 27 °F

Location of Furnace Creek (Death Valley)Location

Historic Weather in Furnace Creek (Death Valley) — Graph

°F

Furnace Creek (Death Valley) temperature yesterday

Maximum temperature yesterday: 97 °F (at 2:53 PM)
Minimum temperature yesterday: 68 °F (at 5:53 AM)
Average temperature yesterday: 83 °F

Past Weeks' High & Low Weather Summary

 TemperatureHumidityPressure
High105 °F (Aug 18, 3:53 PM)60% (Aug 26, 7:53 AM)30.01 "Hg (Aug 26, 7:53 AM)
Low68 °F (Aug 23, 4:53 AM)3% (Aug 18, 11:53 AM)29.62 "Hg (Aug 20, 5:53 PM)
Average88 °F18%29.78 "Hg
* Reported Aug 17 1:53 AM — Sep 1 1:53 AM, Furnace Creek (Death Valley), Weather by CustomWeather, © 2015

Note: Actual official high and low records may vary slightly from our data, if they occured in-between our weather recording intervals... More about our weather records

Advertising

Furnace Creek (Death Valley) weather history for previous 24 hours

 ConditionsComfort  
Time TempWeatherWind HumidityBarometerVisibility
1:53 AM
Tue, Sep 1
74 °FClear.6 mph17%29.75 "Hg10 mi
12:53 AM75 °FClear.8 mph17%29.75 "Hg10 mi
11:53 PM
Mon, Aug 31
79 °FClear.5 mph15%29.75 "Hg10 mi
10:53 PM83 °FClear.8 mph13%29.74 "Hg10 mi
9:53 PM85 °FClear.9 mph13%29.74 "Hg10 mi
7:53 PM88 °FSunny.12 mph10%29.71 "Hg10 mi
6:53 PM91 °FSunny.16 mph10%29.70 "Hg10 mi
5:53 PM93 °FSunny.20 mph10%29.70 "Hg10 mi
4:53 PM95 °FSunny.24 mph12%29.70 "Hg10 mi
3:53 PM96 °FSunny.16 mph12%29.71 "Hg10 mi
2:53 PM97 °FSunny.20 mph10%29.73 "Hg10 mi
1:53 PM96 °FSunny.8 mph14%29.76 "Hg10 mi
12:53 PM92 °FSunny.7 mph16%29.79 "Hg10 mi
11:53 AM92 °FSunny.7 mph16%29.80 "Hg10 mi
10:53 AM89 °FSunny.No wind17%29.82 "Hg10 mi
9:53 AM85 °FSunny.3 mph21%29.83 "Hg10 mi
8:53 AM81 °FSunny.No wind23%29.82 "Hg10 mi
7:53 AM74 °FSunny.No wind27%29.83 "Hg10 mi
6:53 AM69 °FClear.No wind32%29.81 "Hg10 mi
5:53 AM68 °FClear.5 mph33%29.79 "Hg10 mi
4:53 AM70 °FClear.5 mph31%29.77 "Hg10 mi
3:53 AM72 °FClear.7 mph28%29.75 "Hg10 mi
Weather by CustomWeather, © 2015

See weather overviewHow to use our weather pages